User: anonymous   Login
Location: Carri�res
(48.9069°N, 2.1792°E)
Time: 22:33:12
(UTC+00:00)
Language:

Cosmos 2297 Rocket - Orbit

View from above orbital plane
View from above orbital plane
View from above satellite
View from above satellite

Ground track
Ground track

The orbit data is extracted from the following two-line orbital elements,

1 23405U 94077B   21102.53730548  .00000022  00000-0  35946-4 0  9997
2 23405  70.9828 161.5998 0003374 321.2614  38.8267 14.15240847362668
Epoch (UTC): 12 April 2021 12:53:43
Eccentricity: 0.0003374
inclination: 70.9828°
perigee height: 839 km
apogee height: 844 km
right ascension of ascending node: 161.5998°
argument of perigee: 321.2614°
revolutions per day: 14.15240847
mean anomaly at epoch: 38.8267°
orbit number at epoch: 36266

The dashed part of the orbit path shows where the satellite is in the earth's shadow,  

DLR